Regional Weather Roundup
Issued by NWS

Home | Current Version | Previous Version | Graphics & Text | Print | Product List | Glossary On
Versions: 1 2 3 4 5 6 7 8 9 10 11 12 13 14 15 16 17 18 19 20 21 22 23 24 25 26 27 28 29 30 31 32 33 34 35 36 37 38 39 40 41 42 43 44 45 46 47
000
ASUS45 KBOU 210410
RWRCO

WEATHER ROUNDUP FOR COLORADO
NATIONAL WEATHER SERVICE DENVER/BOULDER CO
1000 PM MDT FRI APR 20 2018

NOTE: "FAIR" INDICATES FEW OR NO CLOUDS BELOW 12000 FEET WITH NO
SIGNIFICANT WEATHER AND/OR OBSTRUCTIONS TO VISIBILITY.

COZ001>005-013-030-031-210500-
...NORTHWEST COLORADO...

CITY           SKY/WX    TMP DP  RH WIND       PRES   REMARKS
CRAIG          CLOUDY    38  36  92 SW13      30.00R
HAYDEN         LGT SNOW  33  32  96 S3        30.02R FOG
MEEKER         LGT SNOW  33  31  92 CALM      30.04S FOG
RANGELY        DRIZZLE   39  37  94 CALM      30.08S
RABBIT EARS PA LGT SNOW  27  25  93 W8        30.02S VSB 3/4 WCI  18
STEAMBOAT SPGS CLOUDY    33  33 100 CALM      30.00S
WALDEN         CLOUDY    34  32  93 NE7       30.00S WCI  28
$$

COZ006>008-011-210500-
...WEST CENTRAL VALLEYS...

CITY           SKY/WX    TMP DP  RH WIND       PRES   REMARKS
GRAND JUNCTION CLOUDY    42  38  85 SE9       30.06R
MONTROSE       LGT RAIN  40  31  70 N3        30.10R
EAGLE          CLOUDY    38  28  67 W9        30.05R
RIFLE          LGT RAIN  36  35  96 CALM      30.07R
DELTA          LGT RAIN  43  36  76 W10       30.07S
NUCLA          CLOUDY    46  23  39 NE3       30.10R
$$

COZ017>023-064>068-210500-
...SOUTHWEST COLORADO...

CITY           SKY/WX    TMP DP  RH WIND       PRES   REMARKS
DURANGO        MOCLDY    40  24  53 W9        30.05R
CORTEZ         FAIR      40  30  67 CALM      30.08R
PAGOSA SPRINGS CLOUDY    33  22  63 CALM      30.05S
TELLURIDE      LGT SNOW  29  28  93 W3        30.11R
WOLF CREEK PAS CLOUDY    18  14  86 SW10      30.13R WCI   6
$$

COZ009-010-012-014-032>034-037-058>063-210500-
...CENTRAL COLORADO...

CITY           SKY/WX    TMP DP  RH WIND       PRES   REMARKS
ASPEN          CLOUDY    31  29  92 CALM      30.03S
BUENA VISTA    CLOUDY    33  29  87 E3        30.02R
COPPER MTN     NOT AVBL
BERTHOUD PASS  CLOUDY    19   9  63 SE15G25   30.04R WCI   5
COTTONWOOD PAS CLOUDY    32  27  80 CALM      30.03R
GUNNISON       FLURRIES  32  27  81 E7        30.05R WCI  26
GRANBY         LGT SNOW  33  32  98 CALM      29.99S
KREMMLING      LGT SNOW  39  34  81 W7        30.01R
LEADVILLE      LGT SNOW  24  22  91 NW8       30.02R VSB 1   WCI  15
MONARCH PASS   CLOUDY    18  14  86 W25       30.12S WCI  -1
SALIDA         CLOUDY    37  27  65 W6        30.09R
SUNLIGHT       LGT SNOW  21  21 100 W5        30.09S VSB 1   WCI  15
WILKERSON PASS SNOW     N/A N/A N/A E3        30.06R VSB 1/4
$$

COZ069>075-210500-
...SAN LUIS VALLEY/SANGRE DE CRISTO MOUNTAINS...

CITY           SKY/WX    TMP DP  RH WIND       PRES   REMARKS
ALAMOSA        FAIR      31  25  78 NE3       30.02S
DEL NORTE      CLOUDY    32  24  72 NW7       30.05R WCI  25
LA VETA PASS   CLOUDY    25  19  80 SW10      30.15R WCI  15
SAGUACHE       NOT AVBL
$$

COZ035-036-038>040-210500-
...NORTHERN COLORADO FRONT RANGE...

CITY           SKY/WX    TMP DP  RH WIND       PRES   REMARKS
DENVER INTL AP SLEET     35  33  92 SE16      30.04S FOG     WCI  25
AURORA         LGT RAIN  36  36  99 SE18      30.03R
FRONT RANGE AP LGT RAIN  37  36  94 SE21G26   30.06S
ERIE MUNI ARPT RAIN      40  36  86 E13       30.09R
BOULDER MUN AP RAIN      37  36  93 N13       30.04R
CENTENNIAL     LGT RAIN  37  33  85 SE15G25   30.02R
BROOMFIELD     LGT RAIN  41  36  81 E14       30.03R
FORT COLLINS   LGT RAIN  36  34  92 NE8       30.10R
LONGMONT       MIX PCPN  42  36  81 NE8       30.08R
$$

COZ041-046-047-076>085-087-088-210500-
...PIKES PEAK/PALMER DIVIDE AND SOUTHERN FOOTHILLS...

CITY           SKY/WX    TMP DP  RH WIND       PRES   REMARKS
COLO. SPRINGS  SNOW      32  32 100 E9        30.07S VSB 1/4 WCI  24
A. F. ACADEMY  LGT SNOW  32  32  99 S5        30.05S FOG     WCI  28
SCHRIEVER AFB  NOT AVBL
CHEYENNE MTN   HVY SNOW  30  30 100 E6        30.01R VSB 1/8 WCI  24
ELLICOTT       MIX PCPN N/A N/A N/A SE22G28   30.05R
FALCON         LGT SNOW  31  31 100 SE8       30.08S VSB 1   WCI  24
FORT CARSON    SNOW      32  32  99 CALM      30.06R VSB 1/2
LIMON          FOG       32  32 100 SE12      30.09R VSB 1/4 WCI  23
MONUMENT HILL  LGT SNOW  30  30 100 SE20      30.04S WCI  18
CANON CITY     LGT SNOW  34  34 100 N3        30.05S
WALSENBURG     NOT AVBL
TRINIDAD       FAIR      35  33  92 E9        30.02R WCI  28
$$

COZ042>045-048>051-090-091-210500-
...NORTHEAST COLORADO...

CITY           SKY/WX    TMP DP  RH WIND       PRES   REMARKS
GREELEY ARPT   LGT RAIN  38  35  89 SE17      30.10R
AKRON          CLOUDY    35  35 100 SE20      30.12R WCI  24
BURLINGTON     CLOUDY    39  37  92 SE18      30.11R
WRAY           CLOUDY    37  37 100 E14       30.15R
YUMA           CLOUDY    36  34  93 E15G21    30.13R
STERLING       NOT AVBL
HOLYOKE        DRIZZLE   41  37  87 E18G26    30.17R
FORT MORGAN    DRIZZLE   37  34  90 SE13      30.13R
$$

COZ086-089-092>099-210500-
...SOUTHEAST COLORADO...

CITY           SKY/WX    TMP DP  RH WIND       PRES   REMARKS
PUEBLO         CLOUDY    42  35  76 E21G30    30.04R
LA JUNTA       CLOUDY    41  38  89 E16       30.05S
LAMAR          CLOUDY    43  39  86 SE18G29   30.06R
SPRINGFIELD      N/A     39  39 100 E12       30.06R
$$




USA.gov is the U.S. government's official web portal to all federal, state and local government web resources and services.